Regional Weather Roundup
Issued by NWS

Home | Current Version | Previous Version | Graphics & Text | Print | Product List | Glossary On
Versions: 1 2 3 4 5 6 7 8 9 10 11 12 13 14 15 16 17 18 19 20 21 22 23 24 25 26 27 28 29 30 31 32 33 34 35 36 37 38 39 40 41 42 43 44 45 46 47 48 49 50
345
ASUS43 KFSD 131902
RWRSD

WEATHER ROUNDUP FOR SOUTH DAKOTA
NATIONAL WEATHER SERVICE SIOUX FALLS SD
100 PM CST SAT FEB 13 2016

NOTE: "FAIR" INDICATES FEW OR NO CLOUDS BELOW 12,000 FEET WITH NO
SIGNIFICANT WEATHER AND/OR OBSTRUCTIONS TO VISIBILITY.


SDZ001>005-009-010-012>017-132000-
NORTHWEST AND NORTH CENTRAL SOUTH DAKOTA

CITY           SKY/WX    TMP DP  RH WIND       PRES   REMARKS
BUFFALO          N/A     27  24  89 S13       29.77F WCI  16
FAITH            N/A     24  20  84 SE14      29.95S WCI  12
MOBRIDGE       CLOUDY    17  11  77 SE16G24   30.07F HAZE    WCI   2
$$

SDZ012>016-024>037-041>051-057-063-072>074-132000-
SOUTHWEST AND SOUTH CENTRAL SOUTH DAKOTA

CITY           SKY/WX    TMP DP  RH WIND       PRES   REMARKS
RAPID CTY ARPT CLOUDY    43  32  65 S8        29.88F
PIERRE         CLOUDY    27  17  66 SE21G28   30.07F WCI  13
CUSTER         CLOUDY    50  25  37 SW8G21    29.86F
ELLSWORTH AFB  CLOUDY    41  33  71 VRB1      29.88F
PHILIP         CLOUDY    37  29  72 SE13      29.95F
PINE RIDGE     CLOUDY    41  31  67 S14G26    29.91F
WINNER         CLOUDY    28  16  60 S20G30    30.11F WCI  15
$$

SDZ004>011-016>023-039-040-132000-
NORTHEAST SOUTH DAKOTA

CITY           SKY/WX    TMP DP  RH WIND       PRES   REMARKS
ABERDEEN       CLOUDY    13   0  56 SE23      30.27F WCI  -6
WATERTOWN      CLOUDY     7  -4  60 SE15      30.31F WCI -10
BROOKINGS      CLOUDY     6  -3  66 SE16      30.34F WCI -12
SISSETON         N/A      5  -2  72 S17       30.38F WCI -14
$$

SDZ017-020-022-023-036>040-048>070-132000-
SOUTHEAST SOUTH DAKOTA

CITY           SKY/WX    TMP DP  RH WIND       PRES   REMARKS
SIOUX FALLS    CLOUDY     7  -2  66 SE12      30.38F WCI  -8
HURON          CLOUDY    11   1  64 SE23G35   30.28F WCI  -9
CHAMBERLAIN    CLOUDY    23  12  62 S16G24    30.17F WCI  10
MITCHELL       CLOUDY    12   4  70 SE28G33   30.31F WCI  -9
YANKTON        CLOUDY    10   1  67 SE20      30.38F WCI  -8
$$

ABBREVIATIONS USED IN REMARKS
   TC - TEMPERATURE IN CELSIUS
  WCI - WIND CHILL INDEX
   HX - HEAT INDEX
  VSB - VISIBILITY





USA.gov is the U.S. government's official web portal to all federal, state and local government web resources and services.